UAL1939 KLAX-KEWR

Flight info

Callsign UAL1939
Flight time N/A
Altitude 37000
Route DOTSS2 CLEEE PKE DRK J96 CIM SLN J24 MCI J80 TWAIN/N0471F390 J80 VHP ROD KLYNE Q29 DORET J584 SLT FQM3
Aircraft B77W/H-SDE1E2E3FGHIJ2J3J4J5M1RWXY/LB1D1

Departure

Time 2026-04-26 22:14
Airport Los Angeles International Airport (KLAX)

Arrival

Time N/A
Airport Newark Liberty International Airport (KEWR)
Time Latitude Longitude Altitude Speed Heading
2026-04-26 21:45 33.94032 -118.39986 97 ft 0 kts 49°
2026-04-26 21:59 33.94017 -118.40008 98 ft 4 kts 49°
2026-04-26 22:00 33.94002 -118.40028 99 ft 2 kts 49°
2026-04-26 22:00 33.93984 -118.40050 96 ft 4 kts 36°
2026-04-26 22:00 33.93962 -118.40069 97 ft 4 kts 45°
2026-04-26 22:00 33.93952 -118.40089 99 ft 3 kts 82°
2026-04-26 22:01 33.93949 -118.40121 98 ft 4 kts 82°
2026-04-26 22:01 33.93947 -118.40138 98 ft 0 kts 82°
2026-04-26 22:04 33.93947 -118.40132 98 ft 3 kts 82°
2026-04-26 22:04 33.93945 -118.40074 98 ft 8 kts 119°
2026-04-26 22:04 33.93900 -118.40029 102 ft 8 kts 136°
2026-04-26 22:05 33.93881 -118.39965 102 ft 8 kts 85°
2026-04-26 22:05 33.93889 -118.39893 101 ft 9 kts 83°
2026-04-26 22:05 33.93897 -118.39815 103 ft 10 kts 83°
2026-04-26 22:05 33.93905 -118.39732 100 ft 10 kts 83°
2026-04-26 22:06 33.93914 -118.39647 101 ft 10 kts 83°
2026-04-26 22:06 33.93922 -118.39563 100 ft 10 kts 82°
2026-04-26 22:06 33.93932 -118.39475 99 ft 11 kts 83°
2026-04-26 22:06 33.93941 -118.39381 102 ft 12 kts 83°
2026-04-26 22:07 33.93953 -118.39281 100 ft 12 kts 82°
2026-04-26 22:07 33.93961 -118.39178 100 ft 12 kts 83°
2026-04-26 22:07 33.93973 -118.39076 99 ft 12 kts 82°
2026-04-26 22:07 33.93979 -118.39008 99 ft 12 kts 84°
2026-04-26 22:08 33.93993 -118.38872 99 ft 12 kts 83°
2026-04-26 22:08 33.94002 -118.38769 100 ft 12 kts 83°
2026-04-26 22:08 33.94012 -118.38666 103 ft 12 kts 83°
2026-04-26 22:08 33.94026 -118.38565 103 ft 12 kts 81°
2026-04-26 22:09 33.94036 -118.38462 102 ft 12 kts 83°
2026-04-26 22:09 33.94040 -118.38419 103 ft 0 kts 83°
2026-04-26 22:09 33.94040 -118.38414 103 ft 1 kts 83°
2026-04-26 22:09 33.94042 -118.38396 102 ft 3 kts 84°
2026-04-26 22:10 33.94044 -118.38364 100 ft 4 kts 90°
2026-04-26 22:10 33.94044 -118.38326 102 ft 5 kts 79°
2026-04-26 22:10 33.94059 -118.38233 100 ft 18 kts 82°
2026-04-26 22:10 33.94071 -118.38112 99 ft 8 kts 83°
2026-04-26 22:11 33.94086 -118.38048 99 ft 8 kts 91°
2026-04-26 22:11 33.94078 -118.38031 100 ft 0 kts 137°
2026-04-26 22:12 33.94073 -118.38026 99 ft 5 kts 139°
2026-04-26 22:12 33.93993 -118.38017 100 ft 14 kts 215°
2026-04-26 22:13 33.93973 -118.38133 99 ft 15 kts 265°
2026-04-26 22:13 33.93962 -118.38256 104 ft 16 kts 263°
2026-04-26 22:13 33.93925 -118.38583 106 ft 82 kts 263°
2026-04-26 22:13 33.93805 -118.39742 147 ft 189 kts 262°
2026-04-26 22:14 33.93655 -118.41395 1437 ft 199 kts 264°
2026-04-26 22:14 33.93526 -118.42998 3179 ft 195 kts 266°
2026-04-26 22:14 33.93371 -118.44803 3094 ft 224 kts 265°
2026-04-26 22:14 33.93083 -118.46615 3066 ft 224 kts 246°
2026-04-26 22:15 33.92071 -118.48104 3630 ft 239 kts 224°
2026-04-26 22:15 33.90744 -118.49395 4523 ft 245 kts 227°
2026-04-26 22:15 33.89640 -118.50950 5472 ft 246 kts 237°
2026-04-26 22:15 33.88574 -118.52580 6614 ft 247 kts 235°
2026-04-26 22:16 33.87449 -118.54215 7447 ft 257 kts 233°
2026-04-26 22:16 33.86035 -118.55569 8292 ft 270 kts 206°
2026-04-26 22:16 33.84142 -118.55959 9247 ft 286 kts 180°
2026-04-26 22:16 33.82141 -118.55513 10043 ft 298 kts 172°
2026-04-26 22:17 33.80093 -118.54935 10629 ft 317 kts 172°
2026-04-26 22:17 33.77831 -118.54304 10873 ft 348 kts 172°
2026-04-26 22:17 33.75370 -118.53629 11171 ft 375 kts 171°
2026-04-26 22:17 33.72797 -118.52874 11841 ft 385 kts 166°
2026-04-26 22:18 33.70409 -118.51259 12577 ft 406 kts 141°
2026-04-26 22:18 33.69155 -118.49571 13255 ft 413 kts 126°
2026-04-26 22:18 33.67617 -118.45386 14514 ft 417 kts 109°
2026-04-26 22:18 33.66707 -118.42033 15329 ft 425 kts 109°
2026-04-26 22:19 33.66062 -118.39755 15965 ft 427 kts 110°
2026-04-26 22:19 33.65083 -118.36403 16836 ft 431 kts 110°
2026-04-26 22:19 33.64279 -118.32927 16973 ft 434 kts 96°
2026-04-26 22:19 33.64210 -118.29314 17012 ft 435 kts 88°
2026-04-26 22:20 33.64300 -118.25671 16990 ft 435 kts 88°
2026-04-26 22:20 33.64381 -118.22046 16990 ft 434 kts 88°
2026-04-26 22:20 33.64433 -118.18463 16979 ft 433 kts 89°
2026-04-26 22:20 33.64460 -118.14846 16974 ft 432 kts 89°
2026-04-26 22:21 33.64469 -118.11238 16992 ft 432 kts 89°
2026-04-26 22:21 33.64468 -118.07624 16996 ft 432 kts 89°
2026-04-26 22:21 33.64463 -118.04007 17000 ft 433 kts 89°
2026-04-26 22:21 33.64457 -118.00436 17003 ft 434 kts 89°
2026-04-26 22:22 33.64450 -117.96800 17003 ft 435 kts 89°
2026-04-26 22:22 33.64443 -117.93159 16993 ft 436 kts 90°
2026-04-26 22:22 33.64436 -117.89490 17486 ft 443 kts 90°
2026-04-26 22:22 33.64428 -117.85775 18475 ft 445 kts 90°
2026-04-26 22:23 33.64418 -117.82040 19297 ft 449 kts 90°
2026-04-26 22:23 33.64502 -117.78260 19973 ft 455 kts 83°
2026-04-26 22:23 33.65082 -117.74489 20535 ft 464 kts 76°
2026-04-26 22:23 33.65877 -117.70747 21199 ft 470 kts 74°
2026-04-26 22:24 33.66716 -117.66925 21913 ft 476 kts 75°
2026-04-26 22:24 33.67536 -117.63073 22612 ft 482 kts 75°
2026-04-26 22:24 33.68338 -117.59121 23288 ft 490 kts 76°
2026-04-26 22:24 33.69123 -117.55112 23894 ft 496 kts 76°
2026-04-26 22:25 33.69900 -117.51044 24401 ft 502 kts 77°
2026-04-26 22:25 33.70681 -117.46931 24917 ft 508 kts 77°
2026-04-26 22:25 33.71469 -117.42764 25344 ft 515 kts 77°
2026-04-26 22:25 33.72259 -117.38589 25785 ft 522 kts 77°
2026-04-26 22:26 33.73072 -117.34294 26276 ft 528 kts 77°
2026-04-26 22:26 33.73891 -117.29969 26794 ft 532 kts 77°
2026-04-26 22:26 33.74717 -117.25598 27255 ft 538 kts 77°
2026-04-26 22:26 33.75349 -117.21203 27675 ft 542 kts 87°
2026-04-26 22:27 33.75346 -117.16645 28085 ft 545 kts 96°
2026-04-26 22:27 33.75076 -117.12066 28496 ft 550 kts 97°
2026-04-26 22:27 33.74834 -117.07448 28961 ft 555 kts 95°
2026-04-26 22:27 33.74687 -117.02845 29350 ft 560 kts 94°
2026-04-26 22:28 33.74596 -116.98138 29740 ft 565 kts 94°
2026-04-26 22:28 33.74516 -116.93419 30159 ft 567 kts 94°
2026-04-26 22:28 33.74421 -116.88658 30613 ft 567 kts 94°
2026-04-26 22:28 33.74317 -116.83928 31209 ft 562 kts 94°
2026-04-26 22:29 33.74209 -116.79245 31861 ft 558 kts 95°
2026-04-26 22:29 33.74098 -116.74567 32280 ft 560 kts 95°
2026-04-26 22:29 33.73985 -116.69938 32622 ft 562 kts 95°
2026-04-26 22:29 33.73869 -116.65214 33011 ft 563 kts 95°
2026-04-26 22:30 33.73754 -116.60486 33373 ft 565 kts 95°
2026-04-26 22:30 33.73641 -116.55845 33945 ft 560 kts 96°
2026-04-26 22:30 33.73522 -116.51137 34085 ft 567 kts 96°
2026-04-26 22:30 33.73398 -116.46368 34297 ft 570 kts 96°
2026-04-26 22:31 33.73274 -116.41601 34796 ft 567 kts 96°
2026-04-26 22:31 33.73151 -116.36854 35118 ft 568 kts 96°
2026-04-26 22:31 33.73027 -116.32146 35401 ft 570 kts 96°
2026-04-26 22:31 33.72899 -116.27375 35710 ft 570 kts 96°
2026-04-26 22:32 33.72769 -116.22609 36010 ft 572 kts 96°
2026-04-26 22:32 33.72636 -116.17817 36293 ft 573 kts 96°
2026-04-26 22:32 33.72501 -116.13029 36609 ft 573 kts 96°
2026-04-26 22:32 33.72427 -116.08293 36833 ft 578 kts 91°
2026-04-26 22:33 33.73014 -116.03486 36859 ft 584 kts 74°
2026-04-26 22:33 33.75663 -115.94257 36845 ft 582 kts 69°
2026-04-26 22:34 33.78452 -115.85145 36838 ft 578 kts 70°
2026-04-26 22:34 33.81071 -115.76007 36842 ft 576 kts 72°
2026-04-26 22:35 33.83568 -115.66894 36848 ft 576 kts 72°
2026-04-26 22:35 33.86069 -115.57692 36851 ft 577 kts 72°
2026-04-26 22:36 33.88570 -115.48525 36821 ft 579 kts 72°
2026-04-26 22:36 33.91090 -115.39290 36841 ft 580 kts 72°
2026-04-26 22:37 33.93596 -115.30082 36809 ft 582 kts 72°
2026-04-26 22:37 33.96108 -115.20813 36825 ft 581 kts 72°
2026-04-26 22:38 33.98619 -115.11513 36823 ft 582 kts 72°
2026-04-26 22:38 34.01106 -115.02256 36822 ft 581 kts 72°
2026-04-26 22:39 34.03581 -114.93041 36806 ft 581 kts 72°
2026-04-26 22:39 34.06068 -114.83740 36809 ft 581 kts 72°
2026-04-26 22:40 34.08531 -114.74490 36810 ft 581 kts 72°
2026-04-26 22:40 34.11009 -114.65209 36806 ft 581 kts 72°
2026-04-26 22:41 34.13619 -114.55940 36805 ft 581 kts 71°
2026-04-26 22:41 34.16247 -114.46768 36799 ft 581 kts 71°
2026-04-26 22:42 34.18870 -114.37522 36788 ft 582 kts 71°
2026-04-26 22:42 34.21471 -114.28249 36798 ft 582 kts 71°
2026-04-26 22:43 34.24055 -114.18985 36797 ft 582 kts 71°
2026-04-26 22:43 34.26623 -114.09756 36803 ft 582 kts 72°
2026-04-26 22:44 34.29201 -114.00465 36778 ft 583 kts 72°
2026-04-26 22:44 34.31778 -113.91156 36838 ft 582 kts 72°
2026-04-26 22:45 34.34324 -113.81917 36789 ft 580 kts 71°
2026-04-26 22:45 34.36875 -113.72645 36779 ft 577 kts 72°
2026-04-26 22:46 34.39402 -113.63416 36786 ft 576 kts 72°
2026-04-26 22:46 34.41887 -113.54291 36817 ft 573 kts 72°
2026-04-26 22:47 34.44396 -113.45088 36799 ft 574 kts 72°
2026-04-26 22:47 34.46876 -113.35944 36796 ft 575 kts 72°
2026-04-26 22:48 34.49372 -113.26712 36792 ft 577 kts 72°
2026-04-26 22:48 34.51862 -113.17464 36790 ft 578 kts 72°
2026-04-26 22:49 34.54354 -113.08188 36773 ft 578 kts 72°
2026-04-26 22:49 34.56847 -112.98876 36804 ft 579 kts 72°
2026-04-26 22:50 34.59316 -112.89596 36795 ft 580 kts 73°
2026-04-26 22:50 34.61799 -112.80257 36795 ft 581 kts 72°
2026-04-26 22:51 34.64264 -112.70948 36784 ft 582 kts 72°
2026-04-26 22:51 34.66732 -112.61584 36787 ft 581 kts 73°
2026-04-26 22:52 34.69196 -112.52216 36770 ft 580 kts 73°
2026-04-26 22:52 34.70423 -112.47536 36921 ft 580 kts 73°
2026-04-26 22:52 34.71579 -112.42897 36916 ft 580 kts 75°
2026-04-26 22:53 34.73737 -112.33433 36913 ft 580 kts 76°
2026-04-26 22:53 34.75835 -112.23996 36867 ft 581 kts 76°
2026-04-26 22:54 34.77990 -112.14480 36845 ft 582 kts 76°
2026-04-26 22:54 34.80146 -112.05001 36849 ft 583 kts 76°
2026-04-26 22:55 34.82313 -111.95467 36872 ft 585 kts 76°
2026-04-26 22:55 34.84471 -111.85912 36900 ft 585 kts 76°
2026-04-26 22:56 34.86613 -111.76386 36871 ft 585 kts 76°
2026-04-26 22:56 34.88754 -111.66824 36883 ft 583 kts 76°
2026-04-26 22:57 34.90870 -111.57333 36863 ft 582 kts 76°
2026-04-26 22:57 34.92988 -111.47798 36777 ft 580 kts 76°
2026-04-26 22:58 34.95075 -111.38371 36784 ft 579 kts 76°
2026-04-26 22:58 34.97171 -111.28862 36789 ft 579 kts 76°
2026-04-26 22:59 34.99257 -111.19367 36773 ft 578 kts 76°
2026-04-26 22:59 35.01319 -111.09938 36755 ft 577 kts 76°
2026-04-26 23:00 35.03382 -111.00459 36781 ft 577 kts 76°
2026-04-26 23:00 35.05427 -110.91029 36814 ft 576 kts 76°
2026-04-26 23:01 35.07476 -110.81561 36863 ft 576 kts 76°
2026-04-26 23:01 35.09519 -110.72071 36867 ft 579 kts 77°
2026-04-26 23:02 35.11550 -110.62582 36848 ft 582 kts 77°
2026-04-26 23:02 35.12575 -110.57782 36722 ft 583 kts 77°
2026-04-26 23:02 35.13600 -110.52970 36721 ft 584 kts 77°
2026-04-26 23:03 35.15638 -110.43380 36719 ft 587 kts 77°
2026-04-26 23:03 35.17690 -110.33684 36712 ft 588 kts 77°
2026-04-26 23:04 35.19732 -110.23992 36720 ft 588 kts 77°
2026-04-26 23:04 35.21759 -110.14329 36701 ft 589 kts 77°
2026-04-26 23:05 35.23787 -110.04619 36690 ft 588 kts 77°
2026-04-26 23:05 35.25795 -109.94971 36692 ft 588 kts 77°
2026-04-26 23:06 35.27803 -109.85270 36689 ft 587 kts 77°
2026-04-26 23:06 35.29465 -109.77211 36661 ft 586 kts 77°
2026-04-26 23:07 35.31455 -109.67524 36682 ft 584 kts 77°
2026-04-26 23:07 35.33419 -109.57923 36679 ft 584 kts 77°
2026-04-26 23:08 35.35387 -109.48258 36679 ft 583 kts 77°
2026-04-26 23:08 35.37337 -109.38640 36661 ft 583 kts 77°
2026-04-26 23:09 35.39288 -109.28975 36706 ft 583 kts 77°
2026-04-26 23:09 35.41220 -109.19362 36731 ft 583 kts 77°
2026-04-26 23:10 35.43160 -109.09679 36732 ft 583 kts 77°
2026-04-26 23:10 35.45071 -109.00063 36764 ft 583 kts 77°
2026-04-26 23:11 35.46993 -108.90375 36817 ft 584 kts 77°
2026-04-26 23:11 35.49245 -108.80850 36832 ft 583 kts 71°
2026-04-26 23:12 35.51865 -108.71394 36626 ft 583 kts 70°
2026-04-26 23:12 35.54489 -108.61984 36633 ft 581 kts 71°
2026-04-26 23:13 35.57047 -108.52621 36638 ft 579 kts 71°
2026-04-26 23:13 35.59581 -108.43224 36629 ft 577 kts 71°
2026-04-26 23:14 35.62072 -108.33906 36635 ft 576 kts 71°
2026-04-26 23:14 35.64584 -108.24514 36636 ft 576 kts 71°
2026-04-26 23:15 35.67072 -108.15197 36631 ft 576 kts 71°
2026-04-26 23:15 35.69575 -108.05785 36635 ft 577 kts 71°
2026-04-26 23:16 35.72055 -107.96431 36638 ft 578 kts 71°
2026-04-26 23:16 35.74546 -107.87000 36638 ft 578 kts 72°
2026-04-26 23:17 35.77011 -107.77626 36642 ft 579 kts 72°
2026-04-26 23:17 35.79494 -107.68156 36638 ft 579 kts 72°
2026-04-26 23:18 35.81966 -107.58694 36649 ft 580 kts 72°
2026-04-26 23:18 35.84435 -107.49214 36638 ft 580 kts 72°
2026-04-26 23:19 35.86880 -107.39777 36649 ft 580 kts 72°
2026-04-26 23:19 35.89314 -107.30355 36650 ft 579 kts 72°
2026-04-26 23:20 35.91758 -107.20861 36657 ft 579 kts 72°
2026-04-26 23:20 35.94195 -107.11363 36668 ft 579 kts 72°
2026-04-26 23:21 35.96607 -107.01928 36662 ft 579 kts 72°
2026-04-26 23:21 35.99023 -106.92436 36664 ft 579 kts 73°
2026-04-26 23:22 36.01420 -106.82991 36628 ft 579 kts 73°
2026-04-26 23:22 36.03831 -106.73454 36639 ft 579 kts 73°
2026-04-26 23:23 36.06211 -106.64012 36664 ft 578 kts 73°
2026-04-26 23:23 36.08591 -106.54507 36640 ft 578 kts 73°
2026-04-26 23:24 36.10958 -106.45022 36665 ft 573 kts 73°
2026-04-26 23:24 36.13298 -106.35648 36651 ft 574 kts 73°
2026-04-26 23:25 36.15639 -106.26212 36619 ft 573 kts 73°
2026-04-26 23:25 36.17970 -106.16765 36592 ft 572 kts 73°
2026-04-26 23:26 36.20280 -106.07381 36561 ft 572 kts 73°
2026-04-26 23:26 36.22597 -105.97934 36546 ft 573 kts 73°
2026-04-26 23:27 36.24909 -105.88475 36551 ft 573 kts 73°
2026-04-26 23:27 36.27200 -105.79061 36556 ft 573 kts 73°
2026-04-26 23:28 36.29500 -105.69571 36582 ft 573 kts 73°
2026-04-26 23:28 36.31778 -105.60144 36645 ft 574 kts 73°
2026-04-26 23:29 36.34066 -105.50633 36723 ft 575 kts 73°
2026-04-26 23:29 36.36351 -105.41100 36797 ft 574 kts 73°
2026-04-26 23:30 36.38610 -105.31642 36812 ft 575 kts 73°
2026-04-26 23:30 36.40872 -105.22124 36812 ft 573 kts 74°
2026-04-26 23:31 36.43122 -105.12629 36760 ft 571 kts 74°
2026-04-26 23:31 36.45337 -105.03236 36699 ft 568 kts 73°
2026-04-26 23:31 36.46452 -104.98500 36517 ft 569 kts 74°
2026-04-26 23:32 36.47559 -104.93788 36525 ft 567 kts 74°
2026-04-26 23:32 36.50005 -104.84524 36513 ft 566 kts 66°
2026-04-26 23:33 36.53319 -104.75657 36520 ft 565 kts 63°
2026-04-26 23:33 36.56722 -104.66862 36651 ft 566 kts 63°
2026-04-26 23:34 36.60100 -104.57992 36640 ft 567 kts 63°
2026-04-26 23:34 36.63438 -104.49076 36672 ft 567 kts 64°
2026-04-26 23:35 36.66737 -104.40205 36672 ft 568 kts 64°
2026-04-26 23:35 36.70038 -104.31315 36657 ft 567 kts 64°
2026-04-26 23:36 36.73353 -104.22374 36595 ft 567 kts 64°
2026-04-26 23:36 36.76635 -104.13492 36555 ft 567 kts 64°
2026-04-26 23:37 36.79934 -104.04547 36520 ft 567 kts 64°
2026-04-26 23:37 36.83228 -103.95583 36507 ft 567 kts 64°
2026-04-26 23:38 36.86489 -103.86690 36508 ft 566 kts 64°
2026-04-26 23:38 36.89762 -103.77740 36495 ft 566 kts 64°
2026-04-26 23:39 36.93027 -103.68779 36527 ft 565 kts 64°
2026-04-26 23:39 36.96265 -103.59863 36479 ft 565 kts 64°
2026-04-26 23:40 36.99511 -103.50898 36484 ft 564 kts 64°
2026-04-26 23:40 37.02750 -103.41930 36477 ft 564 kts 65°
2026-04-26 23:41 37.05957 -103.33030 36471 ft 564 kts 65°
2026-04-26 23:41 37.09190 -103.24032 36488 ft 564 kts 65°
2026-04-26 23:42 37.12387 -103.15107 36472 ft 565 kts 65°
2026-04-26 23:42 37.17212 -103.01576 36460 ft 566 kts 65°
2026-04-26 23:43 37.20408 -102.92582 36447 ft 567 kts 65°
2026-04-26 23:43 37.23622 -102.83511 36438 ft 568 kts 65°
2026-04-26 23:44 37.26823 -102.74451 36480 ft 569 kts 65°
2026-04-26 23:44 37.30010 -102.65399 36435 ft 570 kts 65°
2026-04-26 23:45 37.33216 -102.56270 36431 ft 570 kts 65°
2026-04-26 23:45 37.36417 -102.47128 36450 ft 570 kts 66°
2026-04-26 23:46 37.39606 -102.37989 36452 ft 570 kts 65°
2026-04-26 23:46 37.42771 -102.28890 36472 ft 572 kts 65°
2026-04-26 23:47 37.45963 -102.19693 36472 ft 573 kts 65°
2026-04-26 23:47 37.49159 -102.10451 36514 ft 575 kts 65°
2026-04-26 23:48 37.52341 -102.01223 36469 ft 572 kts 66°
2026-04-26 23:48 37.55436 -101.92213 36545 ft 558 kts 66°
2026-04-26 23:49 37.58518 -101.83217 36569 ft 559 kts 66°
2026-04-26 23:49 37.61595 -101.74210 36588 ft 560 kts 66°
2026-04-26 23:50 37.64677 -101.65163 36564 ft 560 kts 66°
2026-04-26 23:50 37.67735 -101.56158 36571 ft 561 kts 66°
2026-04-26 23:51 37.70812 -101.47065 36576 ft 562 kts 66°
2026-04-26 23:51 37.73886 -101.37955 36574 ft 563 kts 66°
2026-04-26 23:52 37.76936 -101.28887 36589 ft 564 kts 66°
2026-04-26 23:52 37.79998 -101.19755 36615 ft 564 kts 66°
2026-04-26 23:53 37.83065 -101.10581 36623 ft 565 kts 66°
2026-04-26 23:53 37.86099 -101.01477 36633 ft 565 kts 66°
2026-04-26 23:54 37.89152 -100.92285 36641 ft 565 kts 66°
2026-04-26 23:54 37.91685 -100.84636 36644 ft 565 kts 66°
2026-04-26 23:55 37.94723 -100.75435 36646 ft 565 kts 66°
2026-04-26 23:55 37.97747 -100.66252 36644 ft 565 kts 66°
2026-04-26 23:56 38.00745 -100.57114 36648 ft 564 kts 66°
2026-04-26 23:56 38.03753 -100.47920 36653 ft 564 kts 66°
2026-04-26 23:57 38.06752 -100.38724 36661 ft 564 kts 66°
2026-04-26 23:57 38.09748 -100.29503 36662 ft 564 kts 66°
2026-04-26 23:58 38.12737 -100.20277 36637 ft 565 kts 66°
2026-04-26 23:58 38.15702 -100.11094 36663 ft 563 kts 67°
2026-04-26 23:59 38.18676 -100.01855 36666 ft 563 kts 67°
2026-04-26 23:59 38.21615 -99.92695 36669 ft 562 kts 67°
2026-04-27 00:00 38.24563 -99.83476 36699 ft 561 kts 67°
2026-04-27 00:00 38.27508 -99.74238 36673 ft 560 kts 67°
2026-04-27 00:01 38.30416 -99.65084 36682 ft 559 kts 67°
2026-04-27 00:01 38.33332 -99.55879 36678 ft 559 kts 67°
2026-04-27 00:02 38.36231 -99.46692 36687 ft 558 kts 67°
2026-04-27 00:02 38.39105 -99.37558 36689 ft 557 kts 67°
2026-04-27 00:03 38.41994 -99.28346 36687 ft 557 kts 67°
2026-04-27 00:03 38.44845 -99.19225 36693 ft 557 kts 67°
2026-04-27 00:04 38.47713 -99.10019 36695 ft 558 kts 67°
2026-04-27 00:04 38.50576 -99.00798 36689 ft 557 kts 67°
2026-04-27 00:05 38.53406 -98.91653 36698 ft 557 kts 67°
2026-04-27 00:05 38.56257 -98.82410 36734 ft 557 kts 68°
2026-04-27 00:06 38.59097 -98.73174 36702 ft 557 kts 68°
2026-04-27 00:06 38.61906 -98.64002 36699 ft 556 kts 68°
2026-04-27 00:07 38.64717 -98.54798 36706 ft 554 kts 68°
2026-04-27 00:07 38.67515 -98.45604 36700 ft 553 kts 68°
2026-04-27 00:08 38.70283 -98.36481 36704 ft 552 kts 68°
2026-04-27 00:08 38.73055 -98.27310 36703 ft 550 kts 68°
2026-04-27 00:09 38.75799 -98.18203 36710 ft 550 kts 68°
2026-04-27 00:09 38.78549 -98.09048 36705 ft 549 kts 68°
2026-04-27 00:10 38.81290 -97.99888 36709 ft 549 kts 68°
2026-04-27 00:10 38.84006 -97.90780 36714 ft 549 kts 68°
2026-04-27 00:11 38.86725 -97.81634 36735 ft 550 kts 68°
2026-04-27 00:11 38.89448 -97.72444 36710 ft 550 kts 68°
2026-04-27 00:12 38.92086 -97.63269 36709 ft 550 kts 72°
2026-04-27 00:12 38.93795 -97.53692 36713 ft 548 kts 81°
2026-04-27 00:13 38.95027 -97.44078 36706 ft 547 kts 82°
2026-04-27 00:13 38.96293 -97.34406 36713 ft 547 kts 81°
2026-04-27 00:14 38.97597 -97.24770 36693 ft 547 kts 81°
2026-04-27 00:14 38.98900 -97.15158 36710 ft 547 kts 81°
2026-04-27 00:15 39.00190 -97.05537 36703 ft 547 kts 81°
2026-04-27 00:15 39.01467 -96.95935 36718 ft 547 kts 81°
2026-04-27 00:16 39.02736 -96.86314 36699 ft 547 kts 81°
2026-04-27 00:16 39.03993 -96.76659 36709 ft 546 kts 81°
2026-04-27 00:17 39.05240 -96.67009 36712 ft 546 kts 81°
2026-04-27 00:17 39.06482 -96.57347 36712 ft 546 kts 81°
2026-04-27 00:18 39.07709 -96.47738 36705 ft 546 kts 81°
2026-04-27 00:18 39.08935 -96.38066 36705 ft 545 kts 81°
2026-04-27 00:19 39.10142 -96.28490 36711 ft 544 kts 81°
2026-04-27 00:19 39.11345 -96.18873 36708 ft 543 kts 81°
2026-04-27 00:20 39.12541 -96.09251 36710 ft 542 kts 81°
2026-04-27 00:20 39.13719 -95.99703 36710 ft 540 kts 81°
2026-04-27 00:21 39.14884 -95.90194 36720 ft 539 kts 81°
2026-04-27 00:21 39.16047 -95.80639 36723 ft 539 kts 81°
2026-04-27 00:22 39.17204 -95.71060 36693 ft 539 kts 81°
2026-04-27 00:22 39.18340 -95.61592 36715 ft 534 kts 81°
2026-04-27 00:23 39.19459 -95.52195 36723 ft 531 kts 81°
2026-04-27 00:23 39.20573 -95.42774 36722 ft 528 kts 81°